Location: Kalberh�ni
(46.4610°N, 7.2453°E)
Time: 08:47:51
(UTC+00:00)

deb Kosmos-2227 - Pass Details

Date: 17 August 2022
Orbit: 774 x 865 km, 70.9° (Epoch: 26 September)

Event Time Altitude Azimuth Distance (km) Brightness Sun altitude
Rises 22:36:26 0° 333° (NNW) 3,349 ? -28.9°
Reaches altitude 10° 22:38:50 10° 334° (NNW) 2,427 ? -29.0°
Enters shadow 22:43:59 76° 360° (N) 866 ? -29.3°
